Location: Newark
(31.5350°N, 35.0986°E)
Time: 14:36:21
(UTC+00:00)

Transit 4A - Pass Details

Date: 21 October 2019
Orbit: 868 x 976 km, 66.8° (Epoch: 17 November)

Event Time Altitude Azimuth Distance (km) Brightness Sun altitude
Rises 02:22:40 0° 224° (SW) 3,659 - -18.6°
Reaches altitude 10° 02:25:24 10° 232° (SW) 2,711 - -18.0°
Exits shadow 02:28:01 24° 247° (WSW) 1,905 9.0 -17.4°
Maximum altitude 02:31:18 40° 300° (WNW) 1,387 8.4 -16.7°
Drops below altitude 10° 02:37:10 10° 9° (N) 2,679 10.4 -15.5°
Sets 02:39:52 0° 17° (NNE) 3,611 11.2 -14.9°
